User: anonymous   Login
Location: Endfield
(51.6667°N, 0.0667°W)
Time: 21:45:51
(UTC+00:00)
Language:

Cosmos 1340 - Orbit

View from above orbital plane
View from above orbital plane
View from above satellite
View from above satellite

Ground track
Ground track

The orbit data is extracted from the following two-line orbital elements,

1 13067U 82013A   24197.63785100  .00032478  00000-0  67274-3 0  9997
2 13067  81.1763 338.2669 0002035  82.7384 277.4092 15.45597615321245
Epoch (UTC): 15 July 2024 15:18:30
Eccentricity: 0.0002035
inclination: 81.1763°
perigee height: 428 km
apogee height: 431 km
right ascension of ascending node: 338.2669°
argument of perigee: 82.7384°
revolutions per day: 15.45597615
mean anomaly at epoch: 277.4092°
orbit number at epoch: 32124

The dashed part of the orbit path shows where the satellite is in the earth's shadow,  

DLR